Voltar ao catálogo

STARLINK-32500

AtivoComunicaçõesVLEO
NORAD 61935·PAYLOAD·🇺🇸 United States

Lançado Nov 11, 2024 de Cape Canaveral Space Force Station

Loading…

Próximas Passagens (próximas 24 horas)

TLE

AtualizadoSource: CelesTrak SupGP

Época: Sep 15, 2026, 02:30 UTC

1 61935C 24207Z   26258.10465278  .00020143  00000+0  72953-3 0  2581
2 61935  43.0002 295.6518 0001221 259.6551 282.1273 15.27571268    10

Acompanhe STARLINK-32500 em tempo real com AllMySat

Download on the App Store